Location: Maidenhead
(51.5224°N, 0.7219°W)
Time: 08:25:41
(UTC+00:00)

ISS - Visible Passes

Search period start: 17 February 2019 00:00
Search period end: 27 February 2019 00:00
Orbit: 403 x 411 km, 51.6° (Epoch: 17 February)

Date Brightness Start Highest point End Pass type
(mag) Time Alt. Az. Time Alt. Az. Time Alt. Az.
22 Feb -0.5 06:25:39 10° SSE 06:26:36 11° SE 06:27:34 10° ESE visible
24 Feb -1.3 06:17:17 10° SSW 06:19:48 20° SE 06:22:19 10° E visible
25 Feb -1.0 05:26:49 10° S 05:28:31 14° SE 05:30:13 10° ESE visible
26 Feb -2.4 06:10:01 10° SW 06:13:03 35° SSE 06:16:05 10° E visible
